Weather History for KARR - February, 2013

Change the Weather History Date:

Saturday, February 23, 2013

  Actual Average Record
Temperature  
Mean Temperature 20 °F 28 °F  
Max Temperature 27 °F 37 °F 61 °F (2000)
Min Temperature 12 °F 19 °F -8 °F (2015)
Degree Days  
Heating Degree Days 45 37  
Month to date heating degree days 964 943  
Since 1 July heating degree days 4651 4960  
Cooling Degree Days 0 0  
Month to date cooling degree days 0 0  
Year to date cooling degree days 0 0  
Moisture  
Dew Point 18 °F    
Average Humidity 80    
Maximum Humidity 92    
Minimum Humidity 68    
Precipitation  
Precipitation T in 0.07 in 0.16 in (2012)
Month to date precipitation 1.72 1.24  
Year to date precipitation 4.86 2.71  
Sea Level Pressure  
Sea Level Pressure 29.96 in    
Wind  
Wind Speed 11 mph (WSW)    
Max Wind Speed 20 mph    
Max Gust Speed 23 mph    
Visibility 9 miles    
Events      
T = Trace of Precipitation, MM = Missing Value Source: NWS Daily Summary

Daily Weather History Graph

Daily Weather History Graph

Search for Another Location

Airport or City:

Trip Planner

Search our weather history database for the weather conditions in past years. The results will help you decide how hot, cold, wet, or windy it might be!

Date:

Astronomy

Feb. 23, 2013 Rise Set
Actual Time 6:37 AM CST 5:37 PM CST
Civil Twilight 6:09 AM CST 6:05 PM CST
Nautical Twilight 5:37 AM CST 6:37 PM CST
Astronomical Twilight 5:05 AM CST 7:10 PM CST
Moon 3:46 PM CST (2/23) 5:01 AM CST (2/23)
Length of Visible Light 11h 56m
Length of Day
10h 59m
Waxing Gibbous, 95% of the Moon is Illuminated
Feb 23
Waxing Gibbous
Feb 25
Full
Mar 4
Last Quarter
Mar 11
New
Mar 19
First Quarter

Hourly Weather History & Observations

Time (CST) Temp. Windchill Dew Point Humidity Pressure Visibility Wind Dir Wind Speed Gust Speed Precip Events Conditions
12:52 AM 26.1 °F 15.0 °F 21.9 °F 84% 29.94 in 7.0 mi WSW 12.7 mph - N/A   Overcast
1:52 AM 25.0 °F 14.2 °F 21.0 °F 85% 29.93 in 7.0 mi WSW 11.5 mph - N/A   Overcast
2:19 AM 23.0 °F 11.1 °F 19.4 °F 86% 29.91 in 7.0 mi WSW 12.7 mph - N/A   Mostly Cloudy
2:52 AM 21.0 °F 10.6 °F 18.0 °F 88% 29.94 in 7.0 mi WSW 9.2 mph - N/A   Mostly Cloudy
3:37 AM 21.2 °F 10.1 °F 17.6 °F 86% 29.91 in 7.0 mi WSW 10.4 mph - N/A   Overcast
3:52 AM 21.9 °F 11.0 °F 18.0 °F 85% 29.94 in 7.0 mi SW 10.4 mph - N/A   Overcast
4:52 AM 21.9 °F 11.7 °F 18.0 °F 85% 29.95 in 8.0 mi WSW 9.2 mph - N/A   Overcast
5:52 AM 21.0 °F 9.9 °F 18.0 °F 88% 29.96 in 8.0 mi WSW 10.4 mph - N/A   Overcast
6:52 AM 21.9 °F 11.0 °F 18.0 °F 85% 29.97 in 6.0 mi WSW 10.4 mph - N/A   Overcast
7:52 AM 23.0 °F 13.1 °F 19.0 °F 85% 29.96 in 6.0 mi WSW 9.2 mph - N/A   Overcast
8:52 AM 24.1 °F 12.0 °F 19.0 °F 81% 29.97 in 8.0 mi WSW 13.8 mph - N/A   Overcast
9:52 AM 25.0 °F 12.2 °F 18.0 °F 75% 29.96 in 10.0 mi West 16.1 mph - N/A   Overcast
10:17 AM 24.8 °F 12.4 °F 17.6 °F 74% 29.95 in 10.0 mi West 15.0 mph - N/A   Overcast
10:52 AM 25.0 °F 12.6 °F 19.0 °F 78% 29.97 in 10.0 mi West 15.0 mph - N/A   Mostly Cloudy
11:52 AM 25.0 °F 13.1 °F 19.0 °F 78% 29.97 in 10.0 mi West 13.8 mph - 0.00 in   Overcast
12:52 PM 25.0 °F 12.2 °F 18.0 °F 75% 29.95 in 10.0 mi West 16.1 mph - N/A   Overcast
1:52 PM 26.1 °F 15.0 °F 18.0 °F 71% 29.95 in 10.0 mi WSW 12.7 mph - N/A   Overcast
2:52 PM 26.1 °F 15.6 °F 19.0 °F 75% 29.96 in 10.0 mi West 11.5 mph - N/A   Overcast
3:52 PM 26.1 °F 15.0 °F 19.0 °F 75% 29.96 in 10.0 mi West 12.7 mph - N/A   Overcast
4:52 PM 25.0 °F 14.8 °F 18.0 °F 75% 29.96 in 10.0 mi WSW 10.4 mph - N/A   Overcast
5:52 PM 25.0 °F 16.3 °F 19.0 °F 78% 29.97 in 10.0 mi WSW 8.1 mph - N/A   Overcast
6:52 PM 23.0 °F 14.7 °F 18.0 °F 81% 29.99 in 10.0 mi WSW 6.9 mph - N/A   Scattered Clouds
7:52 PM 21.9 °F 13.4 °F 17.1 °F 82% 29.99 in 9.0 mi WSW 6.9 mph - N/A   Clear
8:20 PM 21.2 °F 12.6 °F 17.6 °F 86% 29.95 in 9.0 mi WSW 6.9 mph - N/A   Mostly Cloudy
8:30 PM 19.4 °F 10.4 °F 15.8 °F 86% 29.96 in 9.0 mi WSW 6.9 mph - N/A   Scattered Clouds
8:52 PM 19.9 °F 10.1 °F 16.0 °F 85% 29.99 in 9.0 mi WSW 8.1 mph - N/A   Clear
9:52 PM 12.0 °F 2.7 °F 10.9 °F 95% 30.00 in 8.0 mi West 5.8 mph - N/A   Clear
10:52 PM 12.0 °F 2.7 °F 10.9 °F 95% 29.99 in 8.0 mi WSW 5.8 mph - N/A   Partly Cloudy
11:52 PM 16.0 °F 7.4 °F 12.0 °F 84% 30.01 in 8.0 mi WSW 5.8 mph - N/A   Clear